Datum;"Wasserstand in cm";"Stationsnummer: 5819801";"Stationsname: Schildow";"Gew?sser: Tegeler Flie�";"Fehlwerte: -777"
"18.03.2024 00:00";29
"18.03.2024 00:15";29
"18.03.2024 00:30";29
"18.03.2024 00:45";29
"18.03.2024 01:00";29
"18.03.2024 01:15";29
"18.03.2024 01:30";29
"18.03.2024 01:45";29
"18.03.2024 02:00";29
"18.03.2024 02:15";29
"18.03.2024 02:30";29
"18.03.2024 02:45";29
"18.03.2024 03:00";29
"18.03.2024 03:15";29
"18.03.2024 03:30";29
"18.03.2024 03:45";29
"18.03.2024 04:00";29
"18.03.2024 04:15";28
"18.03.2024 04:30";28
"18.03.2024 04:45";28
"18.03.2024 05:00";27
"18.03.2024 05:15";27
"18.03.2024 05:30";27
"18.03.2024 05:45";27
"18.03.2024 06:00";27
"18.03.2024 06:15";27
"18.03.2024 06:30";26
"18.03.2024 06:45";27
"18.03.2024 07:00";27
"18.03.2024 07:15";27
"18.03.2024 07:30";27
"18.03.2024 07:45";27
"18.03.2024 08:00";27
"18.03.2024 08:15";27
"18.03.2024 08:30";27
"18.03.2024 08:45";27
"18.03.2024 09:00";27
"18.03.2024 09:15";27
"18.03.2024 09:30";28
"18.03.2024 09:45";28
"18.03.2024 10:00";28
"18.03.2024 10:15";28
"18.03.2024 10:30";28
"18.03.2024 10:45";28
"18.03.2024 11:00";28
"18.03.2024 11:15";28
"18.03.2024 11:30";28
"18.03.2024 11:45";28
"18.03.2024 12:00";28
"18.03.2024 12:15";28
"18.03.2024 12:30";28
"18.03.2024 12:45";28
"18.03.2024 13:00";28
"18.03.2024 13:15";28
"18.03.2024 13:30";28
"18.03.2024 13:45";28
"18.03.2024 14:00";28
"18.03.2024 14:15";28
"18.03.2024 14:30";28
"18.03.2024 14:45";28
"18.03.2024 15:00";28
"18.03.2024 15:15";28
"18.03.2024 15:30";28
"18.03.2024 15:45";28
"18.03.2024 16:00";28
"18.03.2024 16:15";28
"18.03.2024 16:30";28
"18.03.2024 16:45";28
"18.03.2024 17:00";28
"18.03.2024 17:15";28
"18.03.2024 17:30";28
"18.03.2024 17:45";28
"18.03.2024 18:00";28
"18.03.2024 18:15";28
"18.03.2024 18:30";28
"18.03.2024 18:45";28
"18.03.2024 19:00";28
"18.03.2024 19:15";28
"18.03.2024 19:30";28
"18.03.2024 19:45";28
"18.03.2024 20:00";28
"18.03.2024 20:15";28
"18.03.2024 20:30";27
"18.03.2024 20:45";28
"18.03.2024 21:00";28
"18.03.2024 21:15";28
"18.03.2024 21:30";28
"18.03.2024 21:45";28
"18.03.2024 22:00";28
"18.03.2024 22:15";28
"18.03.2024 22:30";27
"18.03.2024 22:45";27
"18.03.2024 23:00";27
"18.03.2024 23:15";27
"18.03.2024 23:30";27
"18.03.2024 23:45";27
"19.03.2024 00:00";27
"19.03.2024 00:15";27
"19.03.2024 00:30";27
"19.03.2024 00:45";27
"19.03.2024 01:00";27
"19.03.2024 01:15";27
"19.03.2024 01:30";27
"19.03.2024 01:45";27
"19.03.2024 02:00";27
"19.03.2024 02:15";27
"19.03.2024 02:30";27
"19.03.2024 02:45";27
"19.03.2024 03:00";27
"19.03.2024 03:15";27
"19.03.2024 03:30";26
"19.03.2024 03:45";26
"19.03.2024 04:00";26
"19.03.2024 04:15";26
"19.03.2024 04:30";25
"19.03.2024 04:45";25
"19.03.2024 05:00";25
"19.03.2024 05:15";25
"19.03.2024 05:30";25
"19.03.2024 05:45";25
"19.03.2024 06:00";25
"19.03.2024 06:15";25
"19.03.2024 06:30";25
"19.03.2024 06:45";25
"19.03.2024 07:00";25
"19.03.2024 07:15";25
"19.03.2024 07:30";25
"19.03.2024 07:45";25
"19.03.2024 08:00";25
"19.03.2024 08:15";26
"19.03.2024 08:30";26
"19.03.2024 08:45";26
"19.03.2024 09:00";27
"19.03.2024 09:15";27
"19.03.2024 09:30";27
"19.03.2024 09:45";27
"19.03.2024 10:00";27
"19.03.2024 10:15";27
"19.03.2024 10:30";27
"19.03.2024 10:45";27
"19.03.2024 11:00";27
"19.03.2024 11:15";27
"19.03.2024 11:30";27
"19.03.2024 11:45";27
"19.03.2024 12:00";27
"19.03.2024 12:15";27
"19.03.2024 12:30";27
"19.03.2024 12:45";26
"19.03.2024 13:00";26
"19.03.2024 13:15";26
"19.03.2024 13:30";26
"19.03.2024 13:45";26
"19.03.2024 14:00";26
"19.03.2024 14:15";26
"19.03.2024 14:30";26
"19.03.2024 14:45";26
"19.03.2024 15:00";26
"19.03.2024 15:15";26
"19.03.2024 15:30";26
"19.03.2024 15:45";26
"19.03.2024 16:00";26
"19.03.2024 16:15";26
"19.03.2024 16:30";26
"19.03.2024 16:45";26
"19.03.2024 17:00";27
"19.03.2024 17:15";26
"19.03.2024 17:30";26
"19.03.2024 17:45";27
"19.03.2024 18:00";27
"19.03.2024 18:15";27
"19.03.2024 18:30";27
"19.03.2024 18:45";27
"19.03.2024 19:00";26
"19.03.2024 19:15";26
"19.03.2024 19:30";27
"19.03.2024 19:45";27
"19.03.2024 20:00";27
"19.03.2024 20:15";26
"19.03.2024 20:30";27
"19.03.2024 20:45";27
"19.03.2024 21:00";27
"19.03.2024 21:15";27
"19.03.2024 21:30";26
"19.03.2024 21:45";27
"19.03.2024 22:00";27
"19.03.2024 22:15";27
"19.03.2024 22:30";27
"19.03.2024 22:45";27
"19.03.2024 23:00";26
"19.03.2024 23:15";27
"19.03.2024 23:30";27
"19.03.2024 23:45";27
"20.03.2024 00:00";27
"20.03.2024 00:15";26
"20.03.2024 00:30";26
"20.03.2024 00:45";26
"20.03.2024 01:00";26
"20.03.2024 01:15";26
"20.03.2024 01:30";25
"20.03.2024 01:45";25
"20.03.2024 02:00";25
"20.03.2024 02:15";25
"20.03.2024 02:30";25
"20.03.2024 02:45";25
"20.03.2024 03:00";25
"20.03.2024 03:15";25
"20.03.2024 03:30";25
"20.03.2024 03:45";25
"20.03.2024 04:00";25
"20.03.2024 04:15";25
"20.03.2024 04:30";25
"20.03.2024 04:45";25
"20.03.2024 05:00";25
"20.03.2024 05:15";25
"20.03.2024 05:30";25
"20.03.2024 05:45";25
"20.03.2024 06:00";25
"20.03.2024 06:15";25
"20.03.2024 06:30";25
"20.03.2024 06:45";25
"20.03.2024 07:00";25
"20.03.2024 07:15";25
"20.03.2024 07:30";25
"20.03.2024 07:45";25
"20.03.2024 08:00";25
"20.03.2024 08:15";25
"20.03.2024 08:30";26
"20.03.2024 08:45";25
"20.03.2024 09:00";26
"20.03.2024 09:15";26
"20.03.2024 09:30";26
"20.03.2024 09:45";26
"20.03.2024 10:00";25
"20.03.2024 10:15";26
"20.03.2024 10:30";26
"20.03.2024 10:45";26
"20.03.2024 11:00";26
"20.03.2024 11:15";26
"20.03.2024 11:30";26
"20.03.2024 11:45";26
"20.03.2024 12:00";25
"20.03.2024 12:15";25
"20.03.2024 12:30";25
"20.03.2024 12:45";26
"20.03.2024 13:00";25
"20.03.2024 13:15";25
"20.03.2024 13:30";25
"20.03.2024 13:45";25
"20.03.2024 14:00";25
"20.03.2024 14:15";25
"20.03.2024 14:30";25
"20.03.2024 14:45";25
"20.03.2024 15:00";25
"20.03.2024 15:15";25
"20.03.2024 15:30";25
"20.03.2024 15:45";25
"20.03.2024 16:00";25
"20.03.2024 16:15";25
"20.03.2024 16:30";25
"20.03.2024 16:45";25
"20.03.2024 17:00";25
"20.03.2024 17:15";25
"20.03.2024 17:30";25
"20.03.2024 17:45";25
"20.03.2024 18:00";25
"20.03.2024 18:15";25
"20.03.2024 18:30";25
"20.03.2024 18:45";25
"20.03.2024 19:00";25
"20.03.2024 19:15";25
"20.03.2024 19:30";25
"20.03.2024 19:45";25
"20.03.2024 20:00";25
"20.03.2024 20:15";25
"20.03.2024 20:30";25
"20.03.2024 20:45";25
"20.03.2024 21:00";25
"20.03.2024 21:15";25
"20.03.2024 21:30";25
"20.03.2024 21:45";25
"20.03.2024 22:00";25
"20.03.2024 22:15";25
"20.03.2024 22:30";25
"20.03.2024 22:45";25
"20.03.2024 23:00";25
"20.03.2024 23:15";25
"20.03.2024 23:30";25
"20.03.2024 23:45";25
"21.03.2024 00:00";25
"21.03.2024 00:15";25
"21.03.2024 00:30";25
"21.03.2024 00:45";25
"21.03.2024 01:00";25
"21.03.2024 01:15";25
"21.03.2024 01:30";25
"21.03.2024 01:45";25
"21.03.2024 02:00";25
"21.03.2024 02:15";25
"21.03.2024 02:30";25
"21.03.2024 02:45";25
"21.03.2024 03:00";25
"21.03.2024 03:15";25
"21.03.2024 03:30";25
"21.03.2024 03:45";25
"21.03.2024 04:00";25
"21.03.2024 04:15";25
"21.03.2024 04:30";25
"21.03.2024 04:45";24
"21.03.2024 05:00";24
"21.03.2024 05:15";24
"21.03.2024 05:30";24
"21.03.2024 05:45";24
"21.03.2024 06:00";24
"21.03.2024 06:15";24
"21.03.2024 06:30";24
"21.03.2024 06:45";24
"21.03.2024 07:00";24
"21.03.2024 07:15";24
"21.03.2024 07:30";24
"21.03.2024 07:45";24
"21.03.2024 08:00";24
"21.03.2024 08:15";24
"21.03.2024 08:30";25
"21.03.2024 08:45";25
"21.03.2024 09:00";25
"21.03.2024 09:15";25
"21.03.2024 09:30";25
"21.03.2024 09:45";25
"21.03.2024 10:00";25
"21.03.2024 10:15";25
"21.03.2024 10:30";25
"21.03.2024 10:45";26
"21.03.2024 11:00";26
"21.03.2024 11:15";26
"21.03.2024 11:30";26
"21.03.2024 11:45";26
"21.03.2024 12:00";26
"21.03.2024 12:15";26
"21.03.2024 12:30";26
"21.03.2024 12:45";26
"21.03.2024 13:00";26
"21.03.2024 13:15";26
"21.03.2024 13:30";26
"21.03.2024 13:45";26
"21.03.2024 14:00";26
"21.03.2024 14:15";26
"21.03.2024 14:30";26
"21.03.2024 14:45";26
"21.03.2024 15:00";26
"21.03.2024 15:15";26
"21.03.2024 15:30";27
"21.03.2024 15:45";26
"21.03.2024 16:00";27
"21.03.2024 16:15";26
"21.03.2024 16:30";27
"21.03.2024 16:45";27
"21.03.2024 17:00";27
"21.03.2024 17:15";27
"21.03.2024 17:30";27
"21.03.2024 17:45";27
"21.03.2024 18:00";27
"21.03.2024 18:15";27
"21.03.2024 18:30";27
"21.03.2024 18:45";26
"21.03.2024 19:00";27
"21.03.2024 19:15";27
"21.03.2024 19:30";27
"21.03.2024 19:45";27
"21.03.2024 20:00";27
"21.03.2024 20:15";27
"21.03.2024 20:30";27
"21.03.2024 20:45";27
"21.03.2024 21:00";27
"21.03.2024 21:15";27
"21.03.2024 21:30";27
"21.03.2024 21:45";27
"21.03.2024 22:00";27
"21.03.2024 22:15";27
"21.03.2024 22:30";27
"21.03.2024 22:45";27
"21.03.2024 23:00";27
"21.03.2024 23:15";26
"21.03.2024 23:30";26
"21.03.2024 23:45";26
"22.03.2024 00:00";26
"22.03.2024 00:15";26
"22.03.2024 00:30";26
"22.03.2024 00:45";26
"22.03.2024 01:00";26
"22.03.2024 01:15";26
"22.03.2024 01:30";26
"22.03.2024 01:45";26
"22.03.2024 02:00";26
"22.03.2024 02:15";26
"22.03.2024 02:30";26
"22.03.2024 02:45";26
"22.03.2024 03:00";26
"22.03.2024 03:15";26
"22.03.2024 03:30";26
"22.03.2024 03:45";26
"22.03.2024 04:00";26
"22.03.2024 04:15";26
"22.03.2024 04:30";26
"22.03.2024 04:45";26
"22.03.2024 05:00";26
"22.03.2024 05:15";26
"22.03.2024 05:30";26
"22.03.2024 05:45";26
"22.03.2024 06:00";26
"22.03.2024 06:15";26
"22.03.2024 06:30";26
"22.03.2024 06:45";26
"22.03.2024 07:00";26
"22.03.2024 07:15";26
"22.03.2024 07:30";26
"22.03.2024 07:45";26
"22.03.2024 08:00";26
"22.03.2024 08:15";26
"22.03.2024 08:30";26
"22.03.2024 08:45";26
"22.03.2024 09:00";25
"22.03.2024 09:15";26
"22.03.2024 09:30";25
"22.03.2024 09:45";26
"22.03.2024 10:00";25
"22.03.2024 10:15";26
"22.03.2024 10:30";26
"22.03.2024 10:45";26
"22.03.2024 11:00";27
"22.03.2024 11:15";27
"22.03.2024 11:30";28
"22.03.2024 11:45";28
"22.03.2024 12:00";28
"22.03.2024 12:15";29
"22.03.2024 12:30";29
"22.03.2024 12:45";29
"22.03.2024 13:00";29
"22.03.2024 13:15";29
"22.03.2024 13:30";29
"22.03.2024 13:45";29
"22.03.2024 14:00";29
"22.03.2024 14:15";29
"22.03.2024 14:30";29
"22.03.2024 14:45";29
"22.03.2024 15:00";29
"22.03.2024 15:15";28
"22.03.2024 15:30";28
"22.03.2024 15:45";28
"22.03.2024 16:00";28
"22.03.2024 16:15";28
"22.03.2024 16:30";28
"22.03.2024 16:45";28
"22.03.2024 17:00";28
"22.03.2024 17:15";28
"22.03.2024 17:30";28
"22.03.2024 17:45";28
"22.03.2024 18:00";28
"22.03.2024 18:15";28
"22.03.2024 18:30";27
"22.03.2024 18:45";27
"22.03.2024 19:00";28
"22.03.2024 19:15";27
"22.03.2024 19:30";27
"22.03.2024 19:45";28
"22.03.2024 20:00";27
"22.03.2024 20:15";27
"22.03.2024 20:30";27
"22.03.2024 20:45";27
"22.03.2024 21:00";27
"22.03.2024 21:15";27
"22.03.2024 21:30";27
"22.03.2024 21:45";27
"22.03.2024 22:00";27
"22.03.2024 22:15";27
"22.03.2024 22:30";28
"22.03.2024 22:45";28
"22.03.2024 23:00";27
"22.03.2024 23:15";28
"22.03.2024 23:30";28
"22.03.2024 23:45";28
"23.03.2024 00:00";28
"23.03.2024 00:15";28
"23.03.2024 00:30";28
"23.03.2024 00:45";28
"23.03.2024 01:00";28
"23.03.2024 01:15";28
"23.03.2024 01:30";28
"23.03.2024 01:45";28
"23.03.2024 02:00";28
"23.03.2024 02:15";28
"23.03.2024 02:30";28
"23.03.2024 02:45";28
"23.03.2024 03:00";28
"23.03.2024 03:15";27
"23.03.2024 03:30";27
"23.03.2024 03:45";27
"23.03.2024 04:00";27
"23.03.2024 04:15";28
"23.03.2024 04:30";27
"23.03.2024 04:45";27
"23.03.2024 05:00";27
"23.03.2024 05:15";27
"23.03.2024 05:30";27
"23.03.2024 05:45";27
"23.03.2024 06:00";27
"23.03.2024 06:15";27
"23.03.2024 06:30";27
"23.03.2024 06:45";27
"23.03.2024 07:00";27
"23.03.2024 07:15";27
"23.03.2024 07:30";27
"23.03.2024 07:45";27
"23.03.2024 08:00";27
"23.03.2024 08:15";27
"23.03.2024 08:30";27
"23.03.2024 08:45";27
"23.03.2024 09:00";27
"23.03.2024 09:15";27
"23.03.2024 09:30";27
"23.03.2024 09:45";28
"23.03.2024 10:00";28
"23.03.2024 10:15";28
"23.03.2024 10:30";28
"23.03.2024 10:45";28
"23.03.2024 11:00";28
"23.03.2024 11:15";28
"23.03.2024 11:30";28
"23.03.2024 11:45";28
"23.03.2024 12:00";28
"23.03.2024 12:15";28
"23.03.2024 12:30";28
"23.03.2024 12:45";28
"23.03.2024 13:00";28
"23.03.2024 13:15";28
"23.03.2024 13:30";28
"23.03.2024 13:45";28
"23.03.2024 14:00";28
"23.03.2024 14:15";28
"23.03.2024 14:30";28
"23.03.2024 14:45";28
"23.03.2024 15:00";28
"23.03.2024 15:15";28
"23.03.2024 15:30";28
"23.03.2024 15:45";29
"23.03.2024 16:00";29
"23.03.2024 16:15";29
"23.03.2024 16:30";29
"23.03.2024 16:45";30
"23.03.2024 17:00";30
"23.03.2024 17:15";30
"23.03.2024 17:30";30
"23.03.2024 17:45";30
"23.03.2024 18:00";30
"23.03.2024 18:15";30
"23.03.2024 18:30";30
"23.03.2024 18:45";31
"23.03.2024 19:00";31
"23.03.2024 19:15";31
"23.03.2024 19:30";31
"23.03.2024 19:45";31
"23.03.2024 20:00";31
"23.03.2024 20:15";31
"23.03.2024 20:30";31
"23.03.2024 20:45";31
"23.03.2024 21:00";31
"23.03.2024 21:15";31
"23.03.2024 21:30";31
"23.03.2024 21:45";31
"23.03.2024 22:00";31
"23.03.2024 22:15";31
"23.03.2024 22:30";31
"23.03.2024 22:45";31
"23.03.2024 23:00";31
"23.03.2024 23:15";31
"23.03.2024 23:30";31
"23.03.2024 23:45";31
"24.03.2024 00:00";31
"24.03.2024 00:15";31
"24.03.2024 00:30";31
"24.03.2024 00:45";31
"24.03.2024 01:00";31
"24.03.2024 01:15";31
"24.03.2024 01:30";31
"24.03.2024 01:45";31
"24.03.2024 02:00";31
"24.03.2024 02:15";31
"24.03.2024 02:30";31
"24.03.2024 02:45";31
"24.03.2024 03:00";31
"24.03.2024 03:15";31
"24.03.2024 03:30";31
"24.03.2024 03:45";31
"24.03.2024 04:00";31
"24.03.2024 04:15";31
"24.03.2024 04:30";30
"24.03.2024 04:45";30
"24.03.2024 05:00";30
"24.03.2024 05:15";30
"24.03.2024 05:30";30
"24.03.2024 05:45";30
"24.03.2024 06:00";30
"24.03.2024 06:15";30
"24.03.2024 06:30";30
"24.03.2024 06:45";30
"24.03.2024 07:00";30
"24.03.2024 07:15";30
"24.03.2024 07:30";30
"24.03.2024 07:45";30
"24.03.2024 08:00";30
"24.03.2024 08:15";30
"24.03.2024 08:30";30
"24.03.2024 08:45";30
"24.03.2024 09:00";30
"24.03.2024 09:15";30
"24.03.2024 09:30";30
"24.03.2024 09:45";30
"24.03.2024 10:00";30
"24.03.2024 10:15";30
"24.03.2024 10:30";30
"24.03.2024 10:45";30
"24.03.2024 11:00";30
"24.03.2024 11:15";30
"24.03.2024 11:30";30
"24.03.2024 11:45";30
"24.03.2024 12:00";30
"24.03.2024 12:15";30
"24.03.2024 12:30";30
"24.03.2024 12:45";30
"24.03.2024 13:00";30
"24.03.2024 13:15";30
"24.03.2024 13:30";30
"24.03.2024 13:45";30
"24.03.2024 14:00";30
"24.03.2024 14:15";30
"24.03.2024 14:30";30
"24.03.2024 14:45";30
"24.03.2024 15:00";30
"24.03.2024 15:15";30
"24.03.2024 15:30";30
"24.03.2024 15:45";30
"24.03.2024 16:00";30
"24.03.2024 16:15";30
"24.03.2024 16:30";30
"24.03.2024 16:45";30
"24.03.2024 17:00";30
"24.03.2024 17:15";30
"24.03.2024 17:30";30
"24.03.2024 17:45";30
"24.03.2024 18:00";30
"24.03.2024 18:15";30
"24.03.2024 18:30";30
"24.03.2024 18:45";30
"24.03.2024 19:00";30
"24.03.2024 19:15";30
"24.03.2024 19:30";30
"24.03.2024 19:45";30
"24.03.2024 20:00";30
"24.03.2024 20:15";30
"24.03.2024 20:30";30
"24.03.2024 20:45";30
"24.03.2024 21:00";30
"24.03.2024 21:15";30
"24.03.2024 21:30";30
"24.03.2024 21:45";30
"24.03.2024 22:00";30
"24.03.2024 22:15";30
"24.03.2024 22:30";30
"24.03.2024 22:45";30
"24.03.2024 23:00";30
"24.03.2024 23:15";30
"24.03.2024 23:30";30
"24.03.2024 23:45";30
"25.03.2024 00:00";30
"25.03.2024 00:15";30
"25.03.2024 00:30";30
"25.03.2024 00:45";30
"25.03.2024 01:00";30
"25.03.2024 01:15";30
"25.03.2024 01:30";30
"25.03.2024 01:45";30
"25.03.2024 02:00";30
"25.03.2024 02:15";30
"25.03.2024 02:30";30
"25.03.2024 02:45";30
"25.03.2024 03:00";30
"25.03.2024 03:15";30
"25.03.2024 03:30";29
"25.03.2024 03:45";29
"25.03.2024 04:00";30
"25.03.2024 04:15";29
"25.03.2024 04:30";29
"25.03.2024 04:45";29
"25.03.2024 05:00";29
"25.03.2024 05:15";29
"25.03.2024 05:30";30
"25.03.2024 05:45";29
"25.03.2024 06:00";29
"25.03.2024 06:15";29
"25.03.2024 06:30";29
"25.03.2024 06:45";29
"25.03.2024 07:00";29
"25.03.2024 07:15";29
"25.03.2024 07:30";29
"25.03.2024 07:45";29
"25.03.2024 08:00";29
"25.03.2024 08:15";29
"25.03.2024 08:30";29
"25.03.2024 08:45";29
"25.03.2024 09:00";29
"25.03.2024 09:15";29
"25.03.2024 09:30";29
"25.03.2024 09:45";29
"25.03.2024 10:00";29
"25.03.2024 10:15";29
"25.03.2024 10:30";29
"25.03.2024 10:45";29
"25.03.2024 11:00";29
"25.03.2024 11:15";29
"25.03.2024 11:30";29
"25.03.2024 11:45";29
"25.03.2024 12:00";29
"25.03.2024 12:15";30
"25.03.2024 12:30";31
"25.03.2024 12:45";31
"25.03.2024 13:00";32
"25.03.2024 13:15";32
"25.03.2024 13:30";32
"25.03.2024 13:45";32
"25.03.2024 14:00";32
"25.03.2024 14:15";31
"25.03.2024 14:30";31
"25.03.2024 14:45";31
"25.03.2024 15:00";31
"25.03.2024 15:15";31
"25.03.2024 15:30";31
"25.03.2024 15:45";31
"25.03.2024 16:00";31
"25.03.2024 16:15";31
"25.03.2024 16:30";31
"25.03.2024 16:45";31
"25.03.2024 17:00";31
"25.03.2024 17:15";31
"25.03.2024 17:30";31
"25.03.2024 17:45";31
"25.03.2024 18:00";31
"25.03.2024 18:15";31
"25.03.2024 18:30";31
"25.03.2024 18:45";31
"25.03.2024 19:00";31
"25.03.2024 19:15";31
"25.03.2024 19:30";31
"25.03.2024 19:45";31
"25.03.2024 20:00";31
"25.03.2024 20:15";31
"25.03.2024 20:30";31
"25.03.2024 20:45";31
"25.03.2024 21:00";31
"25.03.2024 21:15";31
"25.03.2024 21:30";31
"25.03.2024 21:45";31
"25.03.2024 22:00";31
"25.03.2024 22:15";31
"25.03.2024 22:30";31
"25.03.2024 22:45";31
"25.03.2024 23:00";31
"25.03.2024 23:15";30
"25.03.2024 23:30";30
"25.03.2024 23:45";30
"26.03.2024 00:00";30
"26.03.2024 00:15";30
"26.03.2024 00:30";30
"26.03.2024 00:45";30
"26.03.2024 01:00";30
"26.03.2024 01:15";30
"26.03.2024 01:30";30
"26.03.2024 01:45";30
"26.03.2024 02:00";30
"26.03.2024 02:15";30
"26.03.2024 02:30";30
"26.03.2024 02:45";30
"26.03.2024 03:00";30
"26.03.2024 03:15";30
"26.03.2024 03:30";30
"26.03.2024 03:45";30
"26.03.2024 04:00";30
"26.03.2024 04:15";30
"26.03.2024 04:30";30
"26.03.2024 04:45";30
"26.03.2024 05:00";30
"26.03.2024 05:15";30
"26.03.2024 05:30";30
"26.03.2024 05:45";30
"26.03.2024 06:00";30
"26.03.2024 06:15";30
"26.03.2024 06:30";30
"26.03.2024 06:45";30
"26.03.2024 07:00";30
"26.03.2024 07:15";30
"26.03.2024 07:30";30
"26.03.2024 07:45";30
"26.03.2024 08:00";30
"26.03.2024 08:15";30
"26.03.2024 08:30";30
"26.03.2024 08:45";30
"26.03.2024 09:00";30
"26.03.2024 09:15";30
"26.03.2024 09:30";30
"26.03.2024 09:45";30
"26.03.2024 10:00";30
"26.03.2024 10:15";30
"26.03.2024 10:30";30
"26.03.2024 10:45";30
"26.03.2024 11:00";30
"26.03.2024 11:15";30
"26.03.2024 11:30";30
"26.03.2024 11:45";30
"26.03.2024 12:00";30
"26.03.2024 12:15";30
"26.03.2024 12:30";30
"26.03.2024 12:45";30
"26.03.2024 13:00";30
"26.03.2024 13:15";30
"26.03.2024 13:30";30
"26.03.2024 13:45";30
"26.03.2024 14:00";30
"26.03.2024 14:15";30
"26.03.2024 14:30";30
"26.03.2024 14:45";30
"26.03.2024 15:00";30
"26.03.2024 15:15";30
"26.03.2024 15:30";30
"26.03.2024 15:45";30
"26.03.2024 16:00";30
"26.03.2024 16:15";30
"26.03.2024 16:30";30
"26.03.2024 16:45";30
"26.03.2024 17:00";30
"26.03.2024 17:15";30
"26.03.2024 17:30";30
"26.03.2024 17:45";30
"26.03.2024 18:00";30
"26.03.2024 18:15";30
"26.03.2024 18:30";30
"26.03.2024 18:45";30
"26.03.2024 19:00";30
"26.03.2024 19:15";30
"26.03.2024 19:30";30
"26.03.2024 19:45";30
"26.03.2024 20:00";30
"26.03.2024 20:15";30
"26.03.2024 20:30";30
"26.03.2024 20:45";30
"26.03.2024 21:00";30
"26.03.2024 21:15";30
"26.03.2024 21:30";30
"26.03.2024 21:45";30
"26.03.2024 22:00";30
"26.03.2024 22:15";30
"26.03.2024 22:30";30
"26.03.2024 22:45";30
"26.03.2024 23:00";29
"26.03.2024 23:15";29
"26.03.2024 23:30";29
"26.03.2024 23:45";29
"27.03.2024 00:00";29
"27.03.2024 00:15";29
"27.03.2024 00:30";29
"27.03.2024 00:45";29
"27.03.2024 01:00";29
"27.03.2024 01:15";29
"27.03.2024 01:30";29
"27.03.2024 01:45";29
"27.03.2024 02:00";29
"27.03.2024 02:15";29
"27.03.2024 02:30";29
"27.03.2024 02:45";29
"27.03.2024 03:00";29
"27.03.2024 03:15";29
"27.03.2024 03:30";29
"27.03.2024 03:45";29
"27.03.2024 04:00";29
"27.03.2024 04:15";29
"27.03.2024 04:30";29
"27.03.2024 04:45";29
"27.03.2024 05:00";29
"27.03.2024 05:15";29
"27.03.2024 05:30";29
"27.03.2024 05:45";29
"27.03.2024 06:00";29
"27.03.2024 06:15";29
"27.03.2024 06:30";29
"27.03.2024 06:45";29
"27.03.2024 07:00";29
"27.03.2024 07:15";29
"27.03.2024 07:30";29
"27.03.2024 07:45";29
"27.03.2024 08:00";29
"27.03.2024 08:15";29
"27.03.2024 08:30";29
"27.03.2024 08:45";29
"27.03.2024 09:00";29
"27.03.2024 09:15";29
"27.03.2024 09:30";29
"27.03.2024 09:45";29
"27.03.2024 10:00";29
"27.03.2024 10:15";29
"27.03.2024 10:30";29
"27.03.2024 10:45";29
"27.03.2024 11:00";29
"27.03.2024 11:15";29
"27.03.2024 11:30";29
"27.03.2024 11:45";29
"27.03.2024 12:00";29
"27.03.2024 12:15";29
"27.03.2024 12:30";29
"27.03.2024 12:45";29
"27.03.2024 13:00";29
"27.03.2024 13:15";29
"27.03.2024 13:30";29
"27.03.2024 13:45";29
"27.03.2024 14:00";29
"27.03.2024 14:15";29
"27.03.2024 14:30";29
"27.03.2024 14:45";29
"27.03.2024 15:00";29
"27.03.2024 15:15";29
"27.03.2024 15:30";29
"27.03.2024 15:45";29
"27.03.2024 16:00";29
"27.03.2024 16:15";29
"27.03.2024 16:30";29
"27.03.2024 16:45";29
"27.03.2024 17:00";29
"27.03.2024 17:15";29
"27.03.2024 17:30";29
"27.03.2024 17:45";29
"27.03.2024 18:00";29
"27.03.2024 18:15";29
"27.03.2024 18:30";29
"27.03.2024 18:45";29
"27.03.2024 19:00";29
"27.03.2024 19:15";29
"27.03.2024 19:30";29
"27.03.2024 19:45";29
"27.03.2024 20:00";29
"27.03.2024 20:15";29
"27.03.2024 20:30";29
"27.03.2024 20:45";29
"27.03.2024 21:00";29
"27.03.2024 21:15";29
"27.03.2024 21:30";29
"27.03.2024 21:45";29
"27.03.2024 22:00";29
"27.03.2024 22:15";29
"27.03.2024 22:30";29
"27.03.2024 22:45";29
"27.03.2024 23:00";29
"27.03.2024 23:15";29
"27.03.2024 23:30";29
"27.03.2024 23:45";29
"28.03.2024 00:00";29
"28.03.2024 00:15";29
"28.03.2024 00:30";29
"28.03.2024 00:45";29
"28.03.2024 01:00";29
"28.03.2024 01:15";29
"28.03.2024 01:30";29
"28.03.2024 01:45";29
"28.03.2024 02:00";29
"28.03.2024 02:15";29
"28.03.2024 02:30";29
"28.03.2024 02:45";29
"28.03.2024 03:00";29
"28.03.2024 03:15";29
"28.03.2024 03:30";29
"28.03.2024 03:45";29
"28.03.2024 04:00";29
"28.03.2024 04:15";29
"28.03.2024 04:30";29
"28.03.2024 04:45";29
"28.03.2024 05:00";29
"28.03.2024 05:15";29
"28.03.2024 05:30";29
"28.03.2024 05:45";29
"28.03.2024 06:00";29
"28.03.2024 06:15";29
"28.03.2024 06:30";29
"28.03.2024 06:45";29
"28.03.2024 07:00";29
"28.03.2024 07:15";29
"28.03.2024 07:30";29
"28.03.2024 07:45";29
"28.03.2024 08:00";29
"28.03.2024 08:15";29
"28.03.2024 08:30";29
"28.03.2024 08:45";29
"28.03.2024 09:00";29
"28.03.2024 09:15";29
"28.03.2024 09:30";30
"28.03.2024 09:45";30
"28.03.2024 10:00";31
"28.03.2024 10:15";31
"28.03.2024 10:30";31
"28.03.2024 10:45";32
"28.03.2024 11:00";32
"28.03.2024 11:15";32
"28.03.2024 11:30";32
"28.03.2024 11:45";32
"28.03.2024 12:00";32
"28.03.2024 12:15";32
"28.03.2024 12:30";32
"28.03.2024 12:45";32
"28.03.2024 13:00";32
"28.03.2024 13:15";31
"28.03.2024 13:30";31
"28.03.2024 13:45";31
"28.03.2024 14:00";31
"28.03.2024 14:15";31
"28.03.2024 14:30";31
"28.03.2024 14:45";31
"28.03.2024 15:00";31
"28.03.2024 15:15";30
"28.03.2024 15:30";30
"28.03.2024 15:45";30
"28.03.2024 16:00";30
"28.03.2024 16:15";30
"28.03.2024 16:30";30
"28.03.2024 16:45";30
"28.03.2024 17:00";30
"28.03.2024 17:15";30
"28.03.2024 17:30";30
"28.03.2024 17:45";30
"28.03.2024 18:00";30
"28.03.2024 18:15";30
"28.03.2024 18:30";30
"28.03.2024 18:45";30
"28.03.2024 19:00";29
"28.03.2024 19:15";30
"28.03.2024 19:30";29
"28.03.2024 19:45";29
"28.03.2024 20:00";29
"28.03.2024 20:15";29
"28.03.2024 20:30";29
"28.03.2024 20:45";29
"28.03.2024 21:00";29
"28.03.2024 21:15";29
"28.03.2024 21:30";29
"28.03.2024 21:45";29
"28.03.2024 22:00";29
"28.03.2024 22:15";29
"28.03.2024 22:30";29
"28.03.2024 22:45";29
"28.03.2024 23:00";29
"28.03.2024 23:15";29
"28.03.2024 23:30";29
"28.03.2024 23:45";29
"29.03.2024 00:00";29
"29.03.2024 00:15";29
"29.03.2024 00:30";29
"29.03.2024 00:45";29
"29.03.2024 01:00";29
"29.03.2024 01:15";29
"29.03.2024 01:30";29
"29.03.2024 01:45";28
"29.03.2024 02:00";28
"29.03.2024 02:15";28
"29.03.2024 02:30";28
"29.03.2024 02:45";28
"29.03.2024 03:00";28
"29.03.2024 03:15";28
"29.03.2024 03:30";28
"29.03.2024 03:45";28
"29.03.2024 04:00";28
"29.03.2024 04:15";28
"29.03.2024 04:30";27
"29.03.2024 04:45";27
"29.03.2024 05:00";28
"29.03.2024 05:15";28
"29.03.2024 05:30";27
"29.03.2024 05:45";28
"29.03.2024 06:00";28
"29.03.2024 06:15";28
"29.03.2024 06:30";28
"29.03.2024 06:45";28
"29.03.2024 07:00";28